map of GND home
Great Circle Mapper logo
GND - Airport
Location
City:  St. George's, Grenada, Grenada
Name:Maurice Bishop International Airport
Old (Alt.):Point Salines International Airport
ICAO / IATA:TGPY / GND

Details
Type:Airport (Aerodrome, Airfield)
Use:Public/Civil, International (customs port of entry)
Latitude:1200'15"N (12.004167)
Longitude:6147'17"W (-61.788055)
Elevation:39 ft (12 m)
Runways:1
Longest:8999 × 148 ft (2743 × 45 m), paved

Time
Time Zone:UTC-4
Local Time:

Weather
METAR:TGPY 010300Z 00000KT 9999 FEW018 27/24 Q1014
TAF:TGPY 010130Z 0106/0206 08011KT 9999 SCT018
TEMPO 0114/0120 5000 SHRA BKN014 BKN035
TEMPO 0200/0206 5000 SHRA FEW012CB BKN014 OVC080
BECMG 0203/0205 33030KT

Related Locations
Nearby:
Farthest:TMC: 12241 mi / 19699 km
Tambolaka, ID

Find:

   beyond  
but within

Other Information
Maps:
NOTAMs:
Links:
Sources:

  
flag of Grenada   

Sectional Chart

Flight Planning
at skyvector.com

Satellite Image

Google Maps Satellite View

 

Copyright © 2004-2014 Karl L. Swartz. All rights reserved.
The Great Circle Mapper name and logo are trademarks of the Great Circle Mapper.
All other trademarks mentioned herein belong to their respective owners.
Please see credits for attibutions and further copyright information.

  Follow gcmap on Facebook Follow gcmap on Twitter

hCard Microformat

Geo Microformat